Retour au catalogue

METEOR 1-17 DEB

ActifPO
NORAD 57538·DEBRIS·🇷🇺 Russia

Lancé Apr 24, 1974 depuis Plesetsk Cosmodrome

Loading…

Prochains Passages (prochaines 24 heures)

TLE

FraisSource: Space-Track

Époque: Sep 13, 2026, 19:40 UTC

1 57538U 74025D   26256.81991489  .00002068  00000-0  85901-3 0  9998
2 57538  81.1944 192.3730 0021538 352.6885   7.3977 14.26051096163364

Suivez METEOR 1-17 DEB en temps réel avec AllMySat

Download on the App Store